This is the latest recevied weather packets stored in our database for station/object KC5EZZ-2. If no packets are shown the sender has not sent any weather packets the latest 10 day(s).
| Time | Temp. | Humidity | Pressure | Rain* | Wind** | Luminosity | Snow |
|---|---|---|---|---|---|---|---|
| 1787873253 | 24.44° C | - | - | 0.51 mm | 3.13 m/s, 129° | - | - |
| 1787872954 | 24.44° C | - | - | 0.51 mm | 2.24 m/s, 232° | - | - |
| 1787872651 | 24.44° C | - | - | 0.51 mm | 2.68 m/s, 207° | - | - |
| 1787872352 | 24.44° C | - | - | 0.51 mm | 2.24 m/s, 203° | - | - |
| 1787872052 | 25° C | - | - | 0.51 mm | 2.24 m/s, 172° | - | - |
| 1787871750 | 25° C | - | - | 0.51 mm | 0 m/s | - | - |
| 1787871450 | 25.56° C | - | - | 1.52 mm | 0 m/s | - | - |
| 1787871150 | 26.11° C | - | - | 1.52 mm | 0 m/s | - | - |
| 1787870846 | 26.67° C | - | - | 1.52 mm | 4.92 m/s, 176° | - | - |
| 1787870546 | 27.22° C | - | - | 1.52 mm | 4.02 m/s, 121° | - | - |
| 1787870247 | 26.67° C | - | - | 1.52 mm | 3.58 m/s, 125° | - | - |
| 1787869944 | 26.67° C | - | - | 1.52 mm | 4.47 m/s, 127° | - | - |
| 1787869645 | 26.11° C | - | - | 1.52 mm | 3.13 m/s, 97° | - | - |
| 1787869345 | 26.11° C | - | - | 1.52 mm | 3.58 m/s, 141° | - | - |
| 1787869043 | 26.11° C | - | - | 1.52 mm | 4.47 m/s, 127° | - | - |
| 1787868743 | 26.11° C | - | - | 1.52 mm | 4.92 m/s, 115° | - | - |
| 1787868444 | 25.56° C | - | - | 1.52 mm | 6.71 m/s, 91° | - | - |
| 1787868141 | 24.44° C | - | - | 0 mm | 3.58 m/s, 121° | - | - |
| 1787867842 | 25.56° C | - | - | 0 mm | 0 m/s | - | - |
| 1787867542 | 26.67° C | - | - | 0 mm | 0 m/s | - | - |
| 1787867239 | 27.78° C | - | - | 0 mm | 0 m/s | - | - |
| 1787866940 | 25.56° C | - | - | 0 mm | 3.58 m/s, 318° | - | - |
| 1787866640 | 26.11° C | - | - | 0 mm | 6.26 m/s, 283° | - | - |
| 1787866338 | 28.89° C | - | - | 0 mm | 4.47 m/s, 305° | - | - |
| 1787866038 | 27.78° C | - | - | 0 mm | 5.36 m/s, 24° | - | - |
* Rain latest hour (hover to see other rain measurements)
** Current wind speed in m/s (hover to see current wind gust speed)